Flag for U.S.A. Weather past 2 weeks in Akron, Ohio, U.S.A.

Now
21 °F

Light snow. Overcast.


Feels Like: 21 °F
Forecast: 17 / 34 °F
Wind: No wind

Location: Akron Fulton International Airport

Current Time: Mar 1, 2015 at 12:22:13 AM

Latest Report: Feb 28, 2015 at 11:54 PM


Visibility: 5 mi

Pressure: 30.57 "Hg

Humidity: 47%

Dew point: 4 °F

Location of AkronLocation

Historic Weather in Akron — Graph

°F

Akron temperature yesterday

Maximum temperature yesterday: 23 °F (at 3:54 PM)
Minimum temperature yesterday: -9 °F (at 6:54 AM)
Average temperature yesterday: 10 °F

Past Weeks' High & Low Weather Summary

 TemperatureHumidityPressure
High30 °F (Feb 22, 1:54 PM)92% (Feb 22, 8:54 AM)30.82 "Hg (Feb 22, 8:54 AM)
Low-12 °F (Feb 20, 7:54 AM)27% (Feb 17, 12:54 PM)29.49 "Hg (Feb 14, 12:01 PM)
Average11 °F63%30.19 "Hg
* Reported Feb 13 11:00 PM — Feb 28 10:54 PM, Akron, Weather by CustomWeather, © 2015

Note: Actual official high and low records may vary slightly from our data, if they occured in-between our weather recording intervals... More about our weather records

Advertising

Akron weather history for previous 24 hours

 ConditionsComfort  
Time TempWeatherWind HumidityBarometerVisibility
10:54 PM
Sat, Feb 28
22 °FMostly cloudy.No wind40%30.58 "Hg10 mi
9:54 PM21 °FPassing clouds.3 mph41%30.57 "Hg10 mi
8:54 PM20 °FClear.3 mph43%30.63 "Hg10 mi
7:54 PM17 °FClear.No wind49%30.66 "Hg10 mi
6:54 PM20 °FClear.No wind40%30.67 "Hg10 mi
5:54 PM23 °FSunny.3 mph33%30.68 "Hg10 mi
4:54 PM23 °FPassing clouds.5 mph35%30.69 "Hg10 mi
3:54 PM23 °FPassing clouds.7 mph30%30.71 "Hg10 mi
2:54 PM22 °FSunny.6 mph33%30.72 "Hg10 mi
1:54 PM21 °FSunny.5 mph34%30.75 "Hg10 mi
12:54 PM19 °FSunny.6 mph38%30.78 "Hg10 mi
11:54 AM18 °FSunny.6 mph35%30.80 "Hg10 mi
10:54 AM16 °FSunny.7 mph45%30.81 "Hg10 mi
9:54 AM14 °FSunny.6 mph49%30.82 "Hg10 mi
8:54 AM0 °FIce fog.No wind91%30.82 "Hg5 mi
7:54 AM-6 °FIce fog.No windN/A30.80 "Hg6 mi
6:54 AM-9 °FClear.No wind82%30.79 "Hg7 mi
5:54 AM-8 °FClear.No wind71%30.79 "Hg7 mi
4:54 AM-8 °FClear.No wind71%30.78 "Hg7 mi
3:54 AM-7 °FClear.No wind79%30.75 "Hg7 mi
2:54 AM-5 °FClear.No wind72%30.74 "Hg7 mi
1:54 AM-6 °FClear.No wind78%30.73 "Hg7 mi
12:54 AM-6 °FClear.No wind75%30.73 "Hg7 mi
Weather by CustomWeather, © 2015

See weather overviewHow to use our weather pages